Home   Weather   Paramus   Past weeks

Flag for USA Past Weather in Paramus, New Jersey, USA — Yesterday and Last 2 Weeks

Now
42 °F

Overcast.


Feels Like: 35 °F
Forecast: 36 / 43 °F
Wind: 14 mph from East

Location: Teterboro Airport

Current Time: Jan 23, 2017 at 8:07:18 am

Latest Report: Jan 23, 2017 at 6:51 am


Visibility: 10 mi

Pressure: 29.82 "Hg

Humidity: 76%

Dew Point: 35 °F

Location of ParamusLocation

Past Weather in Paramus — Graph

°F

Paramus Temperature Yesterday

Maximum temperature yesterday: 51 °F (at 2:03 pm)
Minimum temperature yesterday: 45 °F (at 2:51 am)
Average temperature yesterday: 47 °F

High & Low Weather Summary for the Past Weeks

 TemperatureHumidityPressure
High67 °F (Jan 12, 6:51 pm)100% (Jan 22, 7:51 am)30.76 "Hg (Jan 22, 7:51 am)
Low7 °F (Jan 9, 6:51 am)35% (Jan 8, 3:51 pm)29.67 "Hg (Jan 22, 1:51 pm)
Average39 °F74%30.18 "Hg
* Reported Jan 8 6:51 am — Jan 23 6:51 am, Paramus, Weather by CustomWeather, © 2017

Note: Actual official high and low records may vary slightly from our data, if they occured in-between our weather recording intervals... More about our weather records

Advertising

Paramus Weather History for the Previous 24 Hours

Scroll right to see more
 ConditionsComfort  
Time TempWeatherWind HumidityBarometerVisibility
6:51 am
Mon, Jan 23
42 °FOvercast.14 mph76%29.82 "Hg10 mi
5:58 am43 °FOvercast.12 mph76%29.83 "Hg10 mi
4:51 am43 °FOvercast.16 mph79%29.83 "Hg8 mi
3:51 am44 °FOvercast.14 mph79%29.82 "Hg10 mi
2:51 am44 °FDrizzle. Fog.16 mph79%29.81 "Hg6 mi
1:51 am45 °FDrizzle. Fog.18 mph80%29.83 "Hg6 mi
12:51 am46 °FOvercast.10 mph79%29.81 "Hg10 mi
11:51 pm
Sun, Jan 22
46 °FOvercast.16 mph79%29.81 "Hg10 mi
10:51 pm46 °FOvercast.15 mph79%29.81 "Hg10 mi
10:21 pm47 °FOvercast.17 mph80%29.81 "Hg10 mi
9:51 pm47 °FOvercast.17 mph80%29.79 "Hg10 mi
8:51 pm48 °FOvercast.16 mph77%29.78 "Hg10 mi
7:58 pm49 °FOvercast.10 mph74%29.75 "Hg10 mi
6:51 pm50 °FOvercast.5 mph80%29.75 "Hg10 mi
5:58 pm51 °FOvercast.7 mph77%29.73 "Hg10 mi
5:16 pm51 °FLight rain. Overcast.8 mph77%29.73 "Hg6 mi
5:06 pm51 °FDrizzle. Overcast.7 mph77%29.73 "Hg6 mi
4:51 pm50 °FDrizzle. Overcast.7 mph80%29.72 "Hg6 mi
3:51 pm51 °FOvercast.7 mph77%29.70 "Hg6 mi
2:51 pm50 °FFog.8 mph80%29.68 "Hg5 mi
2:03 pm51 °FFog.7 mph80%29.68 "Hg5 mi
1:51 pm50 °FFog.7 mph80%29.67 "Hg5 mi
12:51 pm48 °FFog.7 mph86%29.70 "Hg4 mi
12:35 pm48 °FFog.6 mph86%29.70 "Hg4 mi
11:51 am48 °FFog.5 mph89%29.72 "Hg1 mi
10:51 am47 °FFog.3 mph97%29.74 "Hg1 mi
10:11 am46 °FFog.5 mph96%29.74 "Hg1 mi
9:51 am46 °FFog.No wind96%29.74 "Hg1 mi
9:33 am46 °FFog.5 mph96%29.74 "Hg1 mi
8:51 am46 °FFog.5 mph96%29.72 "Hg0 mi
Weather by CustomWeather, © 2017

See weather overviewHow to use our weather pages